{"data":{"norad_id":47873,"epoch":"2026-09-20T00:03:13.866048Z","epoch_age_seconds":72144,"freshness":"FRESH","line1":"1 47873U 21021P   26263.00224382  .00004925  00000+0  17029-3 0  9996","line2":"2 47873  53.1604  71.1305 0001097  88.1274 271.9853 15.31716234306191","mean_motion":15.31716234,"eccentricity":0.0001097,"inclination_deg":53.1604,"raan_deg":71.1305,"arg_perigee_deg":88.1274,"mean_anomaly_deg":271.9853,"bstar":0.00017029,"rev_number":30619,"period_min":94.012191555841,"perigee_km":469.94028644607,"apogee_km":471.44291944155,"semimajor_km":6848.8286029438,"source":"CELESTRAK","updated_at":"2026-09-20T09:00:38.755355Z"}}